"Period start","avg(HW err(1)/warn(2) (#))","avg(Visibility (m))","avg(Weather code (#))","avg(Precip intensity (mm/h))","min(HW err(1)/warn(2) (#))","max(HW err(1)/warn(2) (#))","std(HW err(1)/warn(2) (#))","med(HW err(1)/warn(2) (#))","min(Visibility (m))","max(Visibility (m))","std(Visibility (m))","med(Visibility (m))","min(Weather code (#))","max(Weather code (#))","std(Weather code (#))","med(Weather code (#))","min(Precip intensity (mm/h))","max(Precip intensity (mm/h))","std(Precip intensity (mm/h))","med(Precip intensity (mm/h))"
2014-08-29 00:00:00,2,48341,0,0.00,2,2,0,2,37930,50000,3565,50000,0,0,0,0,0.00,0.00,0.00,0.00
2014-08-29 00:10:00,2,49043,0,0.00,2,2,0,2,44363,50000,1744,50000,0,0,0,0,0.00,0.00,0.00,0.00
2014-08-29 00:20:00,2,45760,0,0.00,2,2,0,2,38325,50000,3699,47766,0,0,0,0,0.00,0.00,0.00,0.00
2014-08-29 00:30:00,2,44476,0,0.00,2,2,0,2,38577,48138,2653,44746,0,0,0,0,0.00,0.00,0.00,0.00
2014-08-29 00:40:00,2,44335,0,0.00,2,2,0,2,30822,50000,6093,45234,0,0,0,0,0.00,0.00,0.00,0.00
2014-08-29 00:50:00,2,38572,0,0.00,2,2,0,2,23734,50000,7837,40026,0,0,0,0,0.00,0.00,0.00,0.00
2014-08-29 01:00:00,2,45398,0,0.00,2,2,0,2,33144,50000,5939,49284,0,0,0,0,0.00,0.00,0.00,0.00
2014-08-29 01:10:00,2,41389,0,0.00,2,2,0,2,27103,50000,8646,42802,0,0,0,0,0.00,0.00,0.00,0.00
2014-08-29 01:20:00,2,40251,0,0.00,2,2,0,2,30708,50000,6411,40481,0,0,0,0,0.00,0.00,0.00,0.00
2014-08-29 01:30:00,2,47206,0,0.00,2,2,0,2,37763,50000,4365,50000,0,0,0,0,0.00,0.00,0.00,0.00
2014-08-29 01:40:00,2,38690,0,0.00,2,2,0,2,25667,50000,6971,36819,0,0,0,0,0.00,0.00,0.00,0.00
2014-08-29 01:50:00,2,48483,0,0.00,2,2,0,2,42480,50000,2259,49752,0,0,0,0,0.00,0.00,0.00,0.00
2014-08-29 02:00:00,2,37474,0,0.00,2,2,0,2,21438,50000,7882,38140,0,0,0,0,0.00,0.00,0.00,0.00
2014-08-29 02:10:00,2,40827,0,0.00,2,2,0,2,28843,48597,6966,42653,0,0,0,0,0.00,0.00,0.00,0.00
2014-08-29 02:20:00,2,46856,0,0.00,2,2,0,2,40958,50000,3123,47717,0,0,0,0,0.00,0.00,0.00,0.00
2014-08-29 02:30:00,2,41128,0,0.00,2,2,0,2,28928,50000,6842,41689,0,0,0,0,0.00,0.00,0.00,0.00
2014-08-29 02:40:00,2,45556,0,0.00,2,2,0,2,35325,50000,5000,47421,0,0,0,0,0.00,0.00,0.00,0.00
2014-08-29 02:50:00,2,46564,0,0.00,2,2,0,2,38709,50000,3773,48232,0,0,0,0,0.00,0.00,0.00,0.00
2014-08-29 03:00:00,2,47581,0,0.00,2,2,0,2,40984,50000,3330,49472,0,0,0,0,0.00,0.00,0.00,0.00
2014-08-29 03:10:00,2,48550,0,0.00,2,2,0,2,44704,50000,1764,49540,0,0,0,0,0.00,0.00,0.00,0.00
2014-08-29 03:20:00,2,46097,0,0.00,2,2,0,2,30808,50000,5828,48380,0,0,0,0,0.00,0.00,0.00,0.00
2014-08-29 03:30:00,2,47974,0,0.00,2,2,0,2,39756,50000,3182,49675,0,0,0,0,0.00,0.00,0.00,0.00
2014-08-29 03:40:00,2,49376,0,0.00,2,2,0,2,46447,50000,1111,50000,0,0,0,0,0.00,0.00,0.00,0.00
2014-08-29 03:50:00,2,48618,0,0.00,2,2,0,2,44228,50000,2028,49654,0,0,0,0,0.00,0.00,0.00,0.00
2014-08-29 04:00:00,2,49512,0,0.00,2,2,0,2,45573,50000,1320,50000,0,0,0,0,0.00,0.00,0.00,0.00
2014-08-29 04:10:00,2,46920,0,0.00,2,2,0,2,39377,50000,3648,48766,0,0,0,0,0.00,0.00,0.00,0.00
2014-08-29 04:20:00,2,42376,0,0.00,2,2,0,2,26931,50000,7475,46470,0,0,0,0,0.00,0.00,0.00,0.00
2014-08-29 04:30:00,2,46035,0,0.00,2,2,0,2,40538,50000,3635,45685,0,0,0,0,0.00,0.00,0.00,0.00
2014-08-29 04:40:00,2,50000,0,0.00,2,2,0,2,50000,50000,0,50000,0,0,0,0,0.00,0.00,0.00,0.00
2014-08-29 04:50:00,2,48574,0,0.00,2,2,0,2,43890,50000,2222,49829,0,0,0,0,0.00,0.00,0.00,0.00
2014-08-29 05:00:00,2,48873,0,0.00,2,2,0,2,46387,50000,1412,50000,0,0,0,0,0.00,0.00,0.00,0.00
2014-08-29 05:10:00,2,47780,0,0.00,2,2,0,2,42774,50000,2976,49800,0,0,0,0,0.00,0.00,0.00,0.00
2014-08-29 05:20:00,2,47366,0,0.00,2,2,0,2,42582,50000,2879,48474,0,0,0,0,0.00,0.00,0.00,0.00
2014-08-29 05:30:00,2,49984,0,0.00,2,2,0,2,49838,50000,49,50000,0,0,0,0,0.00,0.00,0.00,0.00
2014-08-29 05:40:00,1,49678,0,0.00,0,2,1,2,47948,50000,674,50000,0,0,0,0,0.00,0.00,0.00,0.00
2014-08-29 05:50:00,2,49842,0,0.00,2,2,0,2,48887,50000,347,50000,0,0,0,0,0.00,0.00,0.00,0.00
2014-08-29 06:00:00,2,49924,0,0.00,2,2,0,2,49373,50000,188,50000,0,0,0,0,0.00,0.00,0.00,0.00
2014-08-29 06:10:00,2,50000,0,0.00,0,2,1,2,50000,50000,0,50000,0,0,0,0,0.00,0.00,0.00,0.00
2014-08-29 06:20:00,2,49944,0,0.00,2,2,0,2,49438,50000,169,50000,0,0,0,0,0.00,0.00,0.00,0.00
2014-08-29 06:30:00,2,50000,0,0.00,2,2,0,2,50000,50000,0,50000,0,0,0,0,0.00,0.00,0.00,0.00
2014-08-29 06:40:00,2,49931,0,0.00,2,2,0,2,49314,50000,206,50000,0,0,0,0,0.00,0.00,0.00,0.00
2014-08-29 06:50:00,2,49824,0,0.00,2,2,0,2,48245,50000,526,50000,0,0,0,0,0.00,0.00,0.00,0.00
2014-08-29 07:00:00,2,49978,0,0.00,2,2,0,2,49776,50000,67,50000,0,0,0,0,0.00,0.00,0.00,0.00
2014-08-29 07:10:00,2,50000,0,0.00,2,2,0,2,50000,50000,0,50000,0,0,0,0,0.00,0.00,0.00,0.00
2014-08-29 07:20:00,2,48914,0,0.00,2,2,0,2,42790,50000,2314,50000,0,0,0,0,0.00,0.00,0.00,0.00
2014-08-29 07:30:00,2,49705,0,0.00,2,2,0,2,47048,50000,886,50000,0,0,0,0,0.00,0.00,0.00,0.00
2014-08-29 07:40:00,2,50000,0,0.00,2,2,0,2,50000,50000,0,50000,0,0,0,0,0.00,0.00,0.00,0.00
2014-08-29 07:50:00,2,49333,0,0.00,0,2,1,2,47089,50000,971,50000,0,0,0,0,0.00,0.00,0.00,0.00
2014-08-29 08:00:00,2,49755,0,0.00,2,2,0,2,47546,50000,736,50000,0,0,0,0,0.00,0.00,0.00,0.00
2014-08-29 08:10:00,2,21688,0,0.00,0,2,1,2,3883,45039,16391,18032,0,0,0,0,0.00,0.00,0.00,0.00
2014-08-29 08:20:00,2,6206,49,0.42,2,2,0,2,3504,13195,2786,5451,10,61,14,51,0.00,1.25,0.36,0.33
2014-08-29 08:30:00,2,28654,21,0.01,2,2,0,2,6210,50000,18697,26473,0,51,20,10,0.00,0.05,0.02,0.00
2014-08-29 08:40:00,2,14535,0,0.00,2,2,0,2,3876,50000,13778,9014,0,0,0,0,0.00,0.00,0.00,0.00
2014-08-29 08:50:00,2,30131,10,0.00,2,2,0,2,3165,50000,18419,32091,10,10,0,10,0.00,0.00,0.00,0.00
2014-08-29 09:00:00,2,50000,1,0.00,2,2,0,2,50000,50000,0,50000,0,10,3,0,0.00,0.00,0.00,0.00
2014-08-29 09:10:00,2,49982,0,0.00,0,2,1,2,49816,50000,55,50000,0,0,0,0,0.00,0.00,0.00,0.00
2014-08-29 09:20:00,0,50000,0,0.00,0,0,0,0,50000,50000,0,50000,0,0,0,0,0.00,0.00,0.00,0.00
2014-08-29 09:30:00,2,50000,0,0.00,0,2,1,2,50000,50000,0,50000,0,0,0,0,0.00,0.00,0.00,0.00
2014-08-29 09:40:00,0,50000,0,0.00,0,0,0,0,50000,50000,0,50000,0,0,0,0,0.00,0.00,0.00,0.00
2014-08-29 09:50:00,0,50000,0,0.00,0,0,0,0,50000,50000,0,50000,0,0,0,0,0.00,0.00,0.00,0.00
2014-08-29 10:00:00,1,50000,0,0.00,0,2,1,0,50000,50000,0,50000,0,0,0,0,0.00,0.00,0.00,0.00
2014-08-29 10:10:00,2,50000,0,0.00,2,2,0,2,50000,50000,0,50000,0,0,0,0,0.00,0.00,0.00,0.00
2014-08-29 10:20:00,2,47018,0,0.00,2,2,0,2,30305,50000,6336,50000,0,0,0,0,0.00,0.00,0.00,0.00
2014-08-29 10:30:00,2,49200,0,0.00,2,2,0,2,42001,50000,2400,50000,0,0,0,0,0.00,0.00,0.00,0.00
2014-08-29 10:40:00,2,50000,0,0.00,2,2,0,2,50000,50000,0,50000,0,0,0,0,0.00,0.00,0.00,0.00
2014-08-29 10:50:00,2,50000,0,0.00,2,2,0,2,50000,50000,0,50000,0,0,0,0,0.00,0.00,0.00,0.00
2014-08-29 11:00:00,2,50000,0,0.00,2,2,0,2,50000,50000,0,50000,0,0,0,0,0.00,0.00,0.00,0.00
2014-08-29 11:10:00,2,50000,0,0.00,2,2,0,2,50000,50000,0,50000,0,0,0,0,0.00,0.00,0.00,0.00
2014-08-29 11:20:00,2,50000,0,0.00,2,2,0,2,50000,50000,0,50000,0,0,0,0,0.00,0.00,0.00,0.00
2014-08-29 11:30:00,2,50000,0,0.00,2,2,0,2,50000,50000,0,50000,0,0,0,0,0.00,0.00,0.00,0.00
2014-08-29 11:40:00,2,50000,0,0.00,2,2,0,2,50000,50000,0,50000,0,0,0,0,0.00,0.00,0.00,0.00
2014-08-29 11:50:00,2,50000,0,0.00,2,2,0,2,50000,50000,0,50000,0,0,0,0,0.00,0.00,0.00,0.00
2014-08-29 12:00:00,2,50000,0,0.00,2,2,0,2,50000,50000,0,50000,0,0,0,0,0.00,0.00,0.00,0.00
2014-08-29 12:10:00,2,50000,0,0.00,2,2,0,2,50000,50000,0,50000,0,0,0,0,0.00,0.00,0.00,0.00
2014-08-29 12:20:00,2,50000,0,0.00,2,2,0,2,50000,50000,0,50000,0,0,0,0,0.00,0.00,0.00,0.00
2014-08-29 12:30:00,2,50000,0,0.00,2,2,0,2,50000,50000,0,50000,0,0,0,0,0.00,0.00,0.00,0.00
2014-08-29 12:40:00,2,50000,0,0.00,2,2,0,2,50000,50000,0,50000,0,0,0,0,0.00,0.00,0.00,0.00
2014-08-29 12:50:00,2,50000,0,0.00,2,2,0,2,50000,50000,0,50000,0,0,0,0,0.00,0.00,0.00,0.00
2014-08-29 13:00:00,2,50000,0,0.00,2,2,0,2,50000,50000,0,50000,0,0,0,0,0.00,0.00,0.00,0.00
2014-08-29 13:10:00,2,49987,23,0.06,2,2,0,2,49870,50000,39,50000,0,51,24,20,0.00,0.20,0.07,0.03
2014-08-29 13:20:00,2,48354,40,0.13,2,2,0,2,43502,50000,2422,50000,0,61,26,51,0.00,0.45,0.19,0.00
2014-08-29 13:30:00,2,49792,51,0.17,2,2,0,2,47919,50000,624,50000,51,51,0,51,0.00,0.40,0.12,0.15
2014-08-29 13:40:00,2,50000,12,0.00,2,2,0,2,50000,50000,0,50000,0,41,19,0,0.00,0.00,0.00,0.00
2014-08-29 13:50:00,2,49641,30,0.15,2,2,0,2,47404,50000,802,50000,0,61,30,26,0.00,0.65,0.22,0.00
2014-08-29 14:00:00,2,49954,51,0.21,2,2,0,2,49537,50000,139,50000,51,51,0,51,0.00,0.50,0.15,0.17
2014-08-29 14:10:00,2,50000,46,0.09,2,2,0,2,50000,50000,0,50000,0,51,15,51,0.00,0.25,0.08,0.08
2014-08-29 14:20:00,2,50000,0,0.00,2,2,0,2,50000,50000,0,50000,0,0,0,0,0.00,0.00,0.00,0.00
2014-08-29 14:30:00,2,50000,0,0.00,2,2,0,2,50000,50000,0,50000,0,0,0,0,0.00,0.00,0.00,0.00
2014-08-29 14:40:00,2,50000,0,0.00,2,2,0,2,50000,50000,0,50000,0,0,0,0,0.00,0.00,0.00,0.00
2014-08-29 14:50:00,2,49991,13,0.10,2,2,0,2,49914,50000,26,50000,0,51,20,0,0.00,0.50,0.18,0.00
2014-08-29 15:00:00,2,49866,51,0.16,2,2,0,2,48674,50000,397,50000,51,51,0,51,0.00,0.30,0.09,0.17
2014-08-29 15:10:00,2,50000,48,0.14,2,2,0,2,50000,50000,0,50000,41,51,5,51,0.00,0.20,0.07,0.15
2014-08-29 15:20:00,2,50000,10,0.00,2,2,0,2,50000,50000,0,50000,0,51,20,0,0.00,0.00,0.00,0.00
2014-08-29 15:30:00,2,48642,30,0.16,2,2,0,2,43620,50000,2323,50000,0,61,30,30,0.00,0.70,0.23,0.00
2014-08-29 15:40:00,2,45988,57,0.58,2,2,0,2,31606,50000,6169,49693,51,61,5,61,0.10,2.15,0.57,0.45
2014-08-29 15:50:00,2,27878,56,0.96,2,2,0,2,17048,50000,10245,24471,51,61,5,56,0.20,4.20,1.17,0.40
2014-08-29 16:00:00,2,22021,61,3.06,2,2,0,2,17099,30558,4543,20398,61,61,0,61,1.65,5.65,1.09,2.85
2014-08-29 16:10:00,2,23176,61,2.88,2,2,0,2,15825,30130,4917,23144,61,61,0,61,1.70,4.55,0.89,2.77
2014-08-29 16:20:00,2,24889,61,3.41,2,2,0,2,21440,28874,2382,24384,61,61,0,61,1.50,6.45,1.60,2.88
2014-08-29 16:30:00,2,19069,61,6.20,2,2,0,2,13812,25224,3985,17722,61,61,0,61,3.15,8.70,2.04,6.53
2014-08-29 16:40:00,2,22432,61,4.70,2,2,0,2,14954,30326,4271,22302,61,61,0,61,2.05,10.00,2.62,3.80
2014-08-29 16:50:00,2,19957,61,11.27,2,2,0,2,9871,30704,6280,18466,61,62,0,61,5.45,30.05,6.86,9.75
2014-08-29 17:00:00,2,17380,62,10.13,2,2,0,2,12317,27055,4383,16354,61,62,0,62,3.25,13.75,3.59,10.90
2014-08-29 17:10:00,2,27395,61,6.10,2,2,0,2,17349,40505,7230,24606,61,62,0,61,2.55,13.50,3.78,4.67
2014-08-29 17:20:00,2,37744,61,2.79,2,2,0,2,29133,49026,5065,36627,61,61,0,61,0.90,6.80,1.86,1.97
2014-08-29 17:30:00,2,40915,61,1.98,2,2,0,2,29812,50000,7179,40178,61,61,0,61,0.50,4.00,1.11,1.80
2014-08-29 17:40:00,2,43734,60,0.97,2,2,0,2,36246,49274,4005,44448,51,61,3,61,0.35,2.05,0.56,0.88
2014-08-29 17:50:00,2,32835,59,1.25,2,2,0,2,24976,47848,5983,31961,51,61,4,61,0.70,1.80,0.36,1.38
2014-08-29 18:00:00,2,26902,61,2.75,2,2,0,2,18256,38891,6458,27840,61,61,0,61,1.00,4.45,1.08,2.75
2014-08-29 18:10:00,2,36244,61,1.07,2,2,0,2,28655,42414,3428,36804,61,61,0,61,0.55,1.70,0.33,1.08
2014-08-29 18:20:00,2,37066,56,0.78,2,2,0,2,28989,43622,4585,37688,51,61,5,56,0.20,1.55,0.44,0.68
2014-08-29 18:30:00,2,47004,55,0.24,2,2,0,2,40590,50000,3607,49390,51,61,5,51,0.05,0.60,0.18,0.20
2014-08-29 18:40:00,2,49766,51,0.07,2,2,0,2,47771,50000,666,50000,51,51,0,51,0.00,0.15,0.05,0.05
2014-08-29 18:50:00,2,49749,0,0.00,2,2,0,2,47488,50000,754,50000,0,0,0,0,0.00,0.00,0.00,0.00
2014-08-29 19:00:00,2,50000,0,0.00,2,2,0,2,50000,50000,0,50000,0,0,0,0,0.00,0.00,0.00,0.00
2014-08-29 19:10:00,2,50000,0,0.00,2,2,0,2,50000,50000,0,50000,0,0,0,0,0.00,0.00,0.00,0.00
2014-08-29 19:20:00,2,50000,0,0.00,2,2,0,2,50000,50000,0,50000,0,0,0,0,0.00,0.00,0.00,0.00
2014-08-29 19:30:00,2,50000,0,0.00,2,2,0,2,50000,50000,0,50000,0,0,0,0,0.00,0.00,0.00,0.00
2014-08-29 19:40:00,2,50000,0,0.00,2,2,0,2,50000,50000,0,50000,0,0,0,0,0.00,0.00,0.00,0.00
2014-08-29 19:50:00,2,50000,0,0.00,2,2,0,2,50000,50000,0,50000,0,0,0,0,0.00,0.00,0.00,0.00
2014-08-29 20:00:00,2,50000,0,0.00,2,2,0,2,50000,50000,0,50000,0,0,0,0,0.00,0.00,0.00,0.00
2014-08-29 20:10:00,2,49988,0,0.00,2,2,0,2,49878,50000,37,50000,0,0,0,0,0.00,0.00,0.00,0.00
2014-08-29 20:20:00,2,49872,0,0.00,2,2,0,2,49058,50000,289,50000,0,0,0,0,0.00,0.00,0.00,0.00
2014-08-29 20:30:00,2,50000,0,0.00,2,2,0,2,50000,50000,0,50000,0,0,0,0,0.00,0.00,0.00,0.00
2014-08-29 20:40:00,2,50000,0,0.00,2,2,0,2,50000,50000,0,50000,0,0,0,0,0.00,0.00,0.00,0.00
2014-08-29 20:50:00,2,50000,0,0.00,2,2,0,2,50000,50000,0,50000,0,0,0,0,0.00,0.00,0.00,0.00
2014-08-29 21:00:00,2,50000,0,0.00,2,2,0,2,50000,50000,0,50000,0,0,0,0,0.00,0.00,0.00,0.00
2014-08-29 21:10:00,2,49723,0,0.00,2,2,0,2,47228,50000,832,50000,0,0,0,0,0.00,0.00,0.00,0.00
2014-08-29 21:20:00,2,49781,0,0.00,2,2,0,2,47811,50000,657,50000,0,0,0,0,0.00,0.00,0.00,0.00
2014-08-29 21:30:00,2,49991,0,0.00,2,2,0,2,49911,50000,27,50000,0,0,0,0,0.00,0.00,0.00,0.00
2014-08-29 21:40:00,2,49955,0,0.00,2,2,0,2,49547,50000,136,50000,0,0,0,0,0.00,0.00,0.00,0.00
2014-08-29 21:50:00,2,50000,0,0.00,2,2,0,2,50000,50000,0,50000,0,0,0,0,0.00,0.00,0.00,0.00
2014-08-29 22:00:00,2,49203,0,0.00,2,2,0,2,43656,50000,1889,50000,0,0,0,0,0.00,0.00,0.00,0.00
2014-08-29 22:10:00,2,49834,0,0.00,2,2,0,2,48964,50000,344,50000,0,0,0,0,0.00,0.00,0.00,0.00
2014-08-29 22:20:00,2,49342,0,0.00,2,2,0,2,45159,50000,1487,50000,0,0,0,0,0.00,0.00,0.00,0.00
2014-08-29 22:30:00,2,49661,0,0.00,2,2,0,2,47130,50000,858,50000,0,0,0,0,0.00,0.00,0.00,0.00
2014-08-29 22:40:00,2,49687,0,0.00,2,2,0,2,47263,50000,816,50000,0,0,0,0,0.00,0.00,0.00,0.00
2014-08-29 22:50:00,2,49930,0,0.00,2,2,0,2,49514,50000,153,50000,0,0,0,0,0.00,0.00,0.00,0.00
2014-08-29 23:00:00,2,49672,0,0.00,2,2,0,2,47633,50000,733,50000,0,0,0,0,0.00,0.00,0.00,0.00
2014-08-29 23:10:00,2,48670,0,0.00,2,2,0,2,45930,50000,1666,49905,0,0,0,0,0.00,0.00,0.00,0.00
2014-08-29 23:20:00,2,49038,0,0.00,2,2,0,2,44722,50000,1735,50000,0,0,0,0,0.00,0.00,0.00,0.00
2014-08-29 23:30:00,2,46498,0,0.00,2,2,0,2,36256,50000,5082,48900,0,0,0,0,0.00,0.00,0.00,0.00
2014-08-29 23:40:00,2,50000,0,0.00,2,2,0,2,50000,50000,0,50000,0,0,0,0,0.00,0.00,0.00,0.00
2014-08-29 23:50:00,2,50000,0,0.00,2,2,0,2,50000,50000,0,50000,0,0,0,0,0.00,0.00,0.00,0.00
